Location: Unspecified
(0.0000°N, 0.0000°E)
Time: 08:29:32
(UTC+00:00)

JUGNU - Visible Passes

Search period start: 14 April 2024 00:00
Search period end: 24 April 2024 00:00
Orbit: 835 x 862 km, 20.0° (Epoch: 14 April)

Date Brightness Start Highest point End Pass type
(mag) Time Alt. Az. Time Alt. Az. Time Alt. Az.
14 Apr ? 03:55:06 64° NE 03:55:06 64° NE 04:00:39 10° ESE visible
14 Apr ? 18:25:32 10° WNW 18:30:26 27° NNW 18:35:23 10° NE visible
14 Apr ? 20:17:22 10° NW 20:20:03 13° N 20:20:35 13° N visible
15 Apr ? 03:40:50 46° E 03:40:50 46° E 03:45:00 10° ESE visible
15 Apr ? 05:22:40 11° W 05:28:05 41° SSW 05:33:39 10° SE visible
15 Apr ? 20:02:07 10° NNW 20:04:28 12° N 20:06:08 11° N visible
16 Apr ? 03:26:33 29° ESE 03:26:33 29° ESE 03:29:20 10° ESE visible
16 Apr ? 05:08:23 17° WSW 05:12:24 37° SSW 05:17:51 10° SE visible
16 Apr ? 19:46:54 10° NNW 19:48:53 12° N 19:50:52 10° NNE visible
17 Apr ? 03:12:14 18° ESE 03:12:14 18° ESE 03:13:38 10° ESE visible
17 Apr ? 04:54:04 23° WSW 04:56:43 33° SSW 05:02:03 10° SE visible
17 Apr ? 19:31:44 10° NNW 19:33:18 11° N 19:34:52 10° N visible
18 Apr ? 02:57:54 10° ESE 02:57:54 10° ESE 02:57:56 10° ESE visible
18 Apr ? 04:39:44 28° SW 04:41:03 30° SSW 04:46:14 10° SE visible
18 Apr ? 19:16:39 10° NNW 19:17:43 10° N 19:18:48 10° N visible
19 Apr ? 04:25:21 28° SSW 04:25:22 28° SSW 04:30:25 10° SE visible
19 Apr ? 19:01:53 10° N 19:02:09 10° N 19:02:26 10° N visible
20 Apr ? 04:10:56 24° S 04:10:56 24° S 04:14:35 10° SE visible
21 Apr ? 03:56:29 18° SSE 03:56:29 18° SSE 03:58:44 10° SE visible
21 Apr ? 20:19:11 10° NNW 20:20:19 11° N 20:20:19 11° N visible
22 Apr ? 03:41:59 13° SSE 03:41:59 13° SSE 03:42:52 10° SSE visible
22 Apr ? 05:26:20 10° SSW 05:28:13 11° S 05:30:07 10° SSE visible
22 Apr ? 20:03:16 10° NNW 20:05:34 12° N 20:05:37 12° N visible
23 Apr ? 05:11:05 10° SSW 05:12:39 11° S 05:14:11 10° S visible
23 Apr ? 19:47:21 10° NNW 19:49:58 13° N 19:50:54 13° NNE visible
